ATLAS 5 CENTAUR DEB, 43994

Orbit data source: Space-Track

ATLAS 5 CENTAUR DEB, 43994 is space debris in HEO originally from a launch on Wed, 17 Sep 2014 UTC launched from the Air Force Eastern Test Range (AFETR). Debris objects in space refer to the collection of defunct objects orbiting the Earth. Examples of debris include non-operational satellites, rocket bodies, and fragments generated from explosions, collisions, or faulty payload assembly.

Loading next visibility...
Identifier
43994, 2014-055AZ
Orbit
HEO
Country
Flag of USUS
Related business
Flag of USUnited Launch Alliance/Lockheed Martin (US)
Manufacturer
Unknown
Mission
Spacecraft
Bus & Motor
Unknown
Mass
Unknown
Launch date (UTC)
2014-09-17 (12 years ago)
Launch vehicle
Unknown
Launch site
Air Force Eastern Test Range (AFETR)
Object type
Payload
Rocket body
Debris
Shape & HBR
Unknown shape, 1.1 m
Radar Cross Section
Medium (>0.1 m² and <1 m²)

Expand to show TLE details & history
Last TLE update: 10 hours ago

TLE from 10 hours ago
0 ATLAS 5 CENTAUR DEB
1 43994U 14055AZ  26238.34153925 -.00000032  00000-0  00000+0 0  9992
2 43994  19.4309 172.4779 4597363 116.4841 297.2764  1.80956075 52090
Epoch: 2026-08-26T08:11Z
TLE epoch observation values (Epoch: 2026-08-26T08:11:48.991Z)
Latitude
0.00002°
Longitude
74.82869°
Altitude
21,884.704 km
Speed
3.768 km/s
True Right ascension
11h 29m 30s
True Declination
0° 00' 00"
Sunlit
Object was in daylight at epoch
Visualization orbit readout
Latitude
Unknown
Longitude
Unknown
Altitude
Unknown
Speed
Unknown
Apparent Right ascension
Unknown
Apparent Declination
Unknown
Sunlit
N/A
Visualization observer readout
Local Sidereal Time
09:18:53
Azimuth
Unknown
Elevation
Unknown
Doppler factor
Unknown
Orbital elements
Apogee altitude
35,148.098 km
Perigee altitude
8,991.158 km
Semi-major axis
28,447.765 km
Eccentricity
0.45974
Inclination
19.4309°
RAAN
172.4779°
Arg. of periapsis
116.4841°
True anomaly
243.46694°
Mean anomaly
297.2764°
Eccentric anomaly
270.93899°
Mean motion
0.45235 °/min
Orbital period
795.85 mins
BSTAR
0
Loading maneuver chart data...
Computing Atmospheric mass density...

Documentation

Showing up to 5 results
|